Simultaneous Nadir Overpasses (SNOs) Predictions

Prediction of SNOs between METOP-B and NOAA-19 Satellite Orbit:

Table of predicted SNOs for the next 14.0 days since TLE Epoch: 1/5/2025
Index Date (METOP-B) Time (METOP-B) Lat,Lon (METOP-B) SZA (METOP-B ) Date (NOAA-19) Time (NOAA-19) Lat,Lon (NOAA-19) SZA (NOAA-19 ) Distance(km) Time Diff (sec)
1 01/09/2025 03:29:38 80.26,-155.14 109.32 01/09/2025 03:28:29 80.26,-155.09 109.29 1.00 69
2 01/09/2025 04:20:18 -80.24, 12.40 70.66 01/09/2025 04:19:28 -80.24, 12.35 70.70 1.12 50
3 01/09/2025 05:10:58 80.21,-179.88 109.39 01/09/2025 05:10:24 80.21,-179.94 109.36 1.46 34
4 01/09/2025 06:01:38 -80.19, -12.34 70.59 01/09/2025 06:01:22 -80.18, -12.19 70.58 3.04 16
5 01/09/2025 06:52:19 80.18, 155.07 109.42 01/09/2025 06:52:19 80.17, 155.20 109.44 2.72 0
6
